Regional Weather Roundup
Issued by NWS

Home | Current Version | Previous Version | Graphics & Text | Print | Product List | Glossary On
Versions: 1 2 3 4 5 6 7 8 9 10 11 12 13 14 15 16 17 18 19 20 21 22 23 24 25 26 27 28 29 30 31 32 33 34 35 36 37 38 39 40 41 42 43 44 45 46 47 48 49 50
000
ASUS45 KCYS 280210
RWRWY

WYOMING REGIONAL WEATHER ROUNDUP
NATIONAL WEATHER SERVICE CHEYENNE WY
700 PM MST SAT DEC 27 2014

NOTE:  "FAIR" INDICATES FEW OR NO CLOUDS BELOW 12,000 FEET
WITH NO SIGNIFICANT WEATHER AND/OR OBSTRUCTIONS TO VISIBILITY.

WYZ001-280300-
YELLOWSTONE NATIONAL PARK

CITY           SKY/WX    TMP DP  RH WIND       PRES   REMARKS
LK YELLOWSTONE   N/A     10   5  80 CALM      30.03F
W YELLOWSTONE  NOT AVBL

$$
WYZ002>013-054>058-071-098>099-280300-
NORTHERN WYOMING

CITY           SKY/WX    TMP DP  RH WIND       PRES   REMARKS
JACKSON        CLOUDY    18  14  86 S12       30.10S FOG     WCI   5
CODY           FAIR      27   9  46 W16G29    29.95F WCI  14
GREYBULL       FAIR       1  -1  91 CALM      30.07F
WORLAND        FAIR      -7 -10  87 S3        30.05F
SHERIDAN       FAIR      17   4  56 CALM      29.98F
BUFFALO        FAIR      16   0  49 S7        29.97F WCI   6
GILLETTE       MOCLDY    19   6  57 SW10      29.99F WCI   7
HULETT           N/A    N/A N/A N/A MISG        N/A
NEWCASTLE      FAIR      14   9  79 N6        30.04F WCI   5

$$
WYZ014>020-022>026-101>103-280300-
CENTRAL WYOMING

CITY           SKY/WX    TMP DP  RH WIND       PRES   REMARKS
BIG PINEY      FAIR      -4  -8  83 CALM      30.12R
PINEDALE       FAIR      -4  -6  92 NW5       30.11S WCI -15
DUBOIS         NOT AVBL
LANDER         FAIR       8   2  76 E3        30.01F
RIVERTON       FAIR       5   1  83 SW9       30.02F WCI  -9
CASPER         FAIR      18   7  62 SW22G28   30.02F WCI   1
DOUGLAS        FAIR      12   3  67 CALM      30.03F

$$
WYZ021-027>030-104>119-280300-
SOUTHERN WYOMING

CITY           SKY/WX    TMP DP  RH WIND       PRES   REMARKS
EVANSTON       FAIR      13   8  81 SW17      30.15F WCI  -4
FORT BRIDGER   FAIR      17   9  71 W18G24    30.16S WCI   0
ROCK SPRINGS   CLOUDY    15   7  70 SW9       30.14F WCI   3
DIXON          CLOUDY    15   5  65 SW8G18    30.21S WCI   4
RAWLINS        MOCLDY    14   6  70 W25G37    30.04F WCI  -5
SARATOGA       FAIR      14   1  57 SW9G17    30.09S WCI   2
LARAMIE        FAIR      12  -1  56 SW24      29.98F WCI  -8
CHEYENNE       CLOUDY    20   1  43 W12       30.02S WCI   8
TORRINGTON     FAIR      21   9  59 NW12      30.07S WCI   9
PINE BLUFFS    FAIR      10   3  72 W8        30.07S WCI  -1

$$



USA.gov is the U.S. government's official web portal to all federal, state and local government web resources and services.